Des Moines, IA

10:15 AM CDT on August 29, 2016 (GMT -0500)
Des Moines International

Weather History for KDSM - September, 2013

Change the Weather History Date:

Tuesday, September 17, 2013

  Actual Average Record
Temperature  
Mean Temperature 62 °F 65 °F  
Max Temperature 68 °F 76 °F 95 °F (1925)
Min Temperature 55 °F 55 °F 37 °F (1901)
Degree Days  
Heating Degree Days 3 3  
Month to date heating degree days 9 28  
Since 1 July heating degree days 9 34  
Cooling Degree Days 0 3  
Month to date cooling degree days 169 85  
Year to date cooling degree days 1270 1024  
Growing Degree Days 10 (Base 50)    
Moisture  
Dew Point 57 °F    
Average Humidity 84    
Maximum Humidity 93    
Minimum Humidity 75    
Precipitation  
Precipitation 0.86 in 0.10 in 1.52 in (1919)
Month to date precipitation 1.07 1.82  
Year to date precipitation 24.61 28.54  
Snow  
Snow 0.00 in 0.00 in - ()
Month to date snowfall 0.0 0.0  
Since 1 July snowfall 0.0 0.0  
Since 1 September snowfall 0.0 0.0  
Snow Depth 0.00 in    
Sea Level Pressure  
Sea Level Pressure 30.11 in    
Wind  
Wind Speed 10 mph (SE)    
Max Wind Speed 16 mph    
Max Gust Speed 19 mph    
Visibility 4 miles    
Events Rain    
T = Trace of Precipitation, MM = Missing Value Source: NWS Daily Summary

Daily Weather History Graph

Daily Weather History Graph

Search for Another Location

Airport or City:

Trip Planner

Search our weather history database for the weather conditions in past years. The results will help you decide how hot, cold, wet, or windy it might be!

Date:

Astronomy

Sep. 17, 2013 Rise Set
Actual Time 6:57 AM CDT 7:20 PM CDT
Civil Twilight 6:29 AM CDT 7:47 PM CDT
Nautical Twilight 5:56 AM CDT 8:20 PM CDT
Astronomical Twilight 5:23 AM CDT 8:53 PM CDT
Moon 6:08 PM CDT (9/17) 4:51 AM CDT (9/17)
Length of Visible Light 13h 18m
Length of Day
12h 22m
Waxing Gibbous, 96% of the Moon is Illuminated
Sep 17
Waxing Gibbous
Sep 19
Full
Sep 26
Last Quarter
Oct 4
New
Oct 11
First Quarter

Hourly Weather History & Observations

Time (CDT) Temp. Dew Point Humidity Pressure Visibility Wind Dir Wind Speed Gust Speed Precip Events Conditions
12:54 AM 59.0 °F 52.0 °F 78% 30.24 in 10.0 mi East 6.9 mph - N/A   Overcast
1:54 AM 59.0 °F 51.1 °F 75% 30.24 in 10.0 mi ESE 6.9 mph - N/A   Overcast
2:54 AM 57.9 °F 51.1 °F 78% 30.22 in 10.0 mi ESE 8.1 mph - 0.00 in Rain Light Rain
3:54 AM 57.9 °F 51.1 °F 78% 30.20 in 10.0 mi ESE 6.9 mph - 0.00 in Rain Light Rain
4:54 AM 57.0 °F 52.0 °F 83% 30.20 in 10.0 mi SE 5.8 mph - 0.01 in Rain Light Rain
5:54 AM 55.9 °F 53.1 °F 90% 30.21 in 2.5 mi ESE 6.9 mph - 0.14 in Rain Heavy Rain
6:25 AM 55.9 °F 53.1 °F 90% 30.21 in 2.5 mi SE 8.1 mph - 0.20 in Rain Heavy Rain
6:44 AM 55.0 °F 53.1 °F 93% 30.21 in 3.0 mi ESE 5.8 mph - 0.30 in Rain Rain
6:54 AM 55.0 °F 53.1 °F 93% 30.20 in 3.0 mi ESE 6.9 mph - 0.35 in Rain Rain
7:09 AM 55.0 °F 53.1 °F 93% 30.19 in 2.5 mi ESE 10.4 mph - 0.04 in Rain Light Rain
7:54 AM 55.9 °F 53.1 °F 90% 30.19 in 2.5 mi SE 9.2 mph - 0.16 in Rain Rain
8:54 AM 55.9 °F 54.0 °F 93% 30.18 in 2.0 mi ESE 10.4 mph - 0.06 in Rain Rain
9:37 AM 55.9 °F 54.0 °F 93% 30.18 in 1.5 mi ESE 10.4 mph - 0.06 in Rain Light Rain
9:54 AM 55.9 °F 54.0 °F 93% 30.18 in 1.5 mi ESE 8.1 mph - 0.12 in Rain Rain
10:07 AM 55.9 °F 54.0 °F 93% 30.17 in 4.0 mi SE 9.2 mph - 0.02 in   Light Drizzle
10:33 AM 57.0 °F 54.0 °F 89% 30.17 in 5.0 mi SE 11.5 mph - 0.02 in   Light Drizzle
10:54 AM 57.0 °F 54.0 °F 89% 30.16 in 5.0 mi SE 9.2 mph - 0.02 in Rain Light Rain
11:54 AM 59.0 °F 55.9 °F 90% 30.14 in 3.0 mi SE 12.7 mph - 0.00 in   Light Drizzle
12:41 PM 60.1 °F 57.0 °F 90% 30.13 in 5.0 mi SE 10.4 mph - 0.00 in   Overcast
12:54 PM 60.1 °F 57.0 °F 90% 30.12 in 5.0 mi SSE 12.7 mph - 0.00 in   Overcast
1:54 PM 61.0 °F 57.9 °F 90% 30.09 in 5.0 mi SE 10.4 mph - N/A   Overcast
2:54 PM 63.0 °F 59.0 °F 87% 30.06 in 6.0 mi SSE 10.4 mph - N/A   Overcast
3:54 PM 64.0 °F 60.1 °F 87% 30.04 in 5.0 mi SSE 12.7 mph - N/A   Overcast
4:54 PM 64.0 °F 61.0 °F 90% 30.02 in 3.0 mi SSE 11.5 mph - N/A   Overcast
5:08 PM 64.0 °F 61.0 °F 90% 30.03 in 3.0 mi SE 11.5 mph - N/A   Overcast
5:54 PM 64.0 °F 61.0 °F 90% 30.01 in 3.0 mi SE 11.5 mph - N/A   Overcast
6:38 PM 64.0 °F 62.1 °F 93% 30.00 in 2.5 mi SSE 10.4 mph - N/A   Overcast
6:54 PM 64.0 °F 62.1 °F 93% 30.00 in 2.0 mi SSE 12.7 mph - N/A   Overcast
7:02 PM 64.0 °F 62.1 °F 93% 30.00 in 1.0 mi SSE 13.8 mph - N/A   Overcast
7:54 PM 64.9 °F 62.1 °F 90% 29.98 in 1.0 mi SE 11.5 mph - N/A   Overcast
8:28 PM 64.9 °F 63.0 °F 93% 29.99 in 3.0 mi SE 10.4 mph - N/A   Overcast
8:54 PM 66.0 °F 63.0 °F 90% 29.99 in 3.0 mi SE 11.5 mph - N/A   Overcast
9:54 PM 66.9 °F 63.0 °F 87% 29.99 in 6.0 mi SSE 12.7 mph - N/A   Overcast
10:54 PM 66.9 °F 63.0 °F 87% 29.99 in 6.0 mi SSE 13.8 mph - N/A   Overcast
11:54 PM 66.9 °F 63.0 °F 87% 29.99 in 7.0 mi South 11.5 mph - N/A   Overcast